Year,Month,Day,Hour,Minute,Value (Times are PST for temperature in C)
2013,10,29,00,00,2.50
2013,10,29,00,01,2.50
2013,10,29,00,02,2.60
2013,10,29,00,03,2.60
2013,10,29,00,04,2.60
2013,10,29,00,05,2.60
2013,10,29,00,06,2.60
2013,10,29,00,07,2.70
2013,10,29,00,08,2.70
2013,10,29,00,09,2.70
2013,10,29,00,10,2.70
2013,10,29,00,11,2.70
2013,10,29,00,12,2.60
2013,10,29,00,13,2.60
2013,10,29,00,14,2.60
2013,10,29,00,15,2.60
2013,10,29,00,16,2.60
2013,10,29,00,17,2.60
2013,10,29,00,18,2.60
2013,10,29,00,19,2.50
2013,10,29,00,20,2.50
2013,10,29,00,21,2.50
2013,10,29,00,22,2.40
2013,10,29,00,23,2.40
2013,10,29,00,24,2.40
2013,10,29,00,25,2.40
2013,10,29,00,26,2.40
2013,10,29,00,27,2.40
2013,10,29,00,28,2.40
2013,10,29,00,29,2.40
2013,10,29,00,30,2.40
2013,10,29,00,31,2.40
2013,10,29,00,32,2.40
2013,10,29,00,33,2.40
2013,10,29,00,34,2.40
2013,10,29,00,35,2.40
2013,10,29,00,36,2.40
2013,10,29,00,37,2.40
2013,10,29,00,38,2.40
2013,10,29,00,39,2.40
2013,10,29,00,40,2.30
2013,10,29,00,41,2.30
2013,10,29,00,42,2.30
2013,10,29,00,43,2.30
2013,10,29,00,44,2.30
2013,10,29,00,45,2.30
2013,10,29,00,46,2.30
2013,10,29,00,47,2.30
2013,10,29,00,48,2.30
2013,10,29,00,49,2.30
2013,10,29,00,50,2.30
2013,10,29,00,51,2.30
2013,10,29,00,52,2.30
2013,10,29,00,53,2.40
2013,10,29,00,54,2.40
2013,10,29,00,55,2.40
2013,10,29,00,56,2.40
2013,10,29,00,57,2.40
2013,10,29,00,58,2.40
2013,10,29,00,59,2.40
2013,10,29,01,00,2.40
2013,10,29,01,01,2.40
2013,10,29,01,02,2.40
2013,10,29,01,03,2.30
2013,10,29,01,04,2.30
2013,10,29,01,05,2.30
2013,10,29,01,06,2.30
2013,10,29,01,07,2.30
2013,10,29,01,08,2.30
2013,10,29,01,09,2.30
2013,10,29,01,10,2.30
2013,10,29,01,11,2.30
2013,10,29,01,12,2.30
2013,10,29,01,13,2.30
2013,10,29,01,14,2.30
2013,10,29,01,15,2.30
2013,10,29,01,16,2.30
2013,10,29,01,17,2.30
2013,10,29,01,18,2.30
2013,10,29,01,19,2.30
2013,10,29,01,20,2.20
2013,10,29,01,21,2.20
2013,10,29,01,22,2.20
2013,10,29,01,23,2.20
2013,10,29,01,24,2.20
2013,10,29,01,25,2.20
2013,10,29,01,26,2.20
2013,10,29,01,27,2.20
2013,10,29,01,28,2.20
2013,10,29,01,29,2.20
2013,10,29,01,30,2.20
2013,10,29,01,31,2.10
2013,10,29,01,32,2.10
2013,10,29,01,33,2.20
2013,10,29,01,34,2.20
2013,10,29,01,35,2.20
2013,10,29,01,36,2.20
2013,10,29,01,37,2.20
2013,10,29,01,38,2.20
2013,10,29,01,39,2.20
2013,10,29,01,40,2.20
2013,10,29,01,41,2.20
2013,10,29,01,42,2.10
2013,10,29,01,43,2.10
2013,10,29,01,44,2.10
2013,10,29,01,45,2.00
2013,10,29,01,46,2.00
2013,10,29,01,47,2.00
2013,10,29,01,48,1.90
2013,10,29,01,49,1.90
2013,10,29,01,50,1.90
2013,10,29,01,51,1.80
2013,10,29,01,52,1.80
2013,10,29,01,53,1.70
2013,10,29,01,54,1.70
2013,10,29,01,55,1.60
2013,10,29,01,56,1.60
2013,10,29,01,57,1.60
2013,10,29,01,58,1.50
2013,10,29,01,59,1.50
2013,10,29,02,00,1.50
2013,10,29,02,01,1.40
2013,10,29,02,02,1.40
2013,10,29,02,03,1.40
2013,10,29,02,04,1.40
2013,10,29,02,05,1.40
2013,10,29,02,06,1.40
2013,10,29,02,07,1.40
2013,10,29,02,08,1.40
2013,10,29,02,09,1.40
2013,10,29,02,10,1.30
2013,10,29,02,11,1.30
2013,10,29,02,12,1.40
2013,10,29,02,13,1.40
2013,10,29,02,14,1.40
2013,10,29,02,15,1.40
2013,10,29,02,16,1.40
2013,10,29,02,17,1.40
2013,10,29,02,18,1.40
2013,10,29,02,19,1.40
2013,10,29,02,20,1.50
2013,10,29,02,21,1.40
2013,10,29,02,22,1.40
2013,10,29,02,23,1.40
2013,10,29,02,24,1.40
2013,10,29,02,25,1.40
2013,10,29,02,26,1.40
2013,10,29,02,27,1.40
2013,10,29,02,28,1.40
2013,10,29,02,29,1.40
2013,10,29,02,30,1.40
2013,10,29,02,31,1.40
2013,10,29,02,32,1.40
2013,10,29,02,33,1.50
2013,10,29,02,34,1.50
2013,10,29,02,35,1.50
2013,10,29,02,36,1.40
2013,10,29,02,37,1.40
2013,10,29,02,38,1.40
2013,10,29,02,39,1.40
2013,10,29,02,40,1.40
2013,10,29,02,41,1.40
2013,10,29,02,42,1.40
2013,10,29,02,43,1.40
2013,10,29,02,44,1.40
2013,10,29,02,45,1.40
2013,10,29,02,46,1.40
2013,10,29,02,47,1.40
2013,10,29,02,48,1.40
2013,10,29,02,49,1.30
2013,10,29,02,50,1.40
2013,10,29,02,51,1.40
2013,10,29,02,52,1.40
2013,10,29,02,53,1.40
2013,10,29,02,54,1.40
2013,10,29,02,55,1.40
2013,10,29,02,56,1.40
2013,10,29,02,57,1.40
2013,10,29,02,58,1.40
2013,10,29,02,59,1.40
2013,10,29,03,00,1.30
2013,10,29,03,01,1.30
2013,10,29,03,02,1.30
2013,10,29,03,03,1.30
2013,10,29,03,04,1.30
2013,10,29,03,05,1.30
2013,10,29,03,06,1.30
2013,10,29,03,07,1.30
2013,10,29,03,08,1.30
2013,10,29,03,09,1.30
2013,10,29,03,10,1.30
2013,10,29,03,11,1.30
2013,10,29,03,12,1.30
2013,10,29,03,13,1.30
2013,10,29,03,14,1.30
2013,10,29,03,15,1.30
2013,10,29,03,16,1.30
2013,10,29,03,17,1.30
2013,10,29,03,18,1.30
2013,10,29,03,19,1.30
2013,10,29,03,20,1.30
2013,10,29,03,21,1.30
2013,10,29,03,22,1.30
2013,10,29,03,23,1.30
2013,10,29,03,24,1.30
2013,10,29,03,25,1.30
2013,10,29,03,26,1.30
2013,10,29,03,27,1.30
2013,10,29,03,28,1.30
2013,10,29,03,29,1.30
2013,10,29,03,30,1.30
2013,10,29,03,31,1.30
2013,10,29,03,32,1.30
2013,10,29,03,33,1.30
2013,10,29,03,34,1.30
2013,10,29,03,35,1.30
2013,10,29,03,36,1.30
2013,10,29,03,37,1.30
2013,10,29,03,38,1.30
2013,10,29,03,39,1.30
2013,10,29,03,40,1.30
2013,10,29,03,41,1.30
2013,10,29,03,42,1.30
2013,10,29,03,43,1.30
2013,10,29,03,44,1.30
2013,10,29,03,45,1.30
2013,10,29,03,46,1.30
2013,10,29,03,47,1.30
2013,10,29,03,48,1.30
2013,10,29,03,49,1.30
2013,10,29,03,50,1.30
2013,10,29,03,51,1.30
2013,10,29,03,52,1.30
2013,10,29,03,53,1.30
2013,10,29,03,54,1.30
2013,10,29,03,55,1.30
2013,10,29,03,56,1.30
2013,10,29,03,57,1.30
2013,10,29,03,58,1.30
2013,10,29,03,59,1.30
2013,10,29,04,00,1.30
2013,10,29,04,01,1.30
2013,10,29,04,02,1.30
2013,10,29,04,03,1.30
2013,10,29,04,04,1.30
2013,10,29,04,05,1.30
2013,10,29,04,06,1.30
2013,10,29,04,07,1.30
2013,10,29,04,08,1.30
2013,10,29,04,09,1.30
2013,10,29,04,10,1.30
2013,10,29,04,11,1.30
2013,10,29,04,12,1.30
2013,10,29,04,13,1.30
2013,10,29,04,14,1.30
2013,10,29,04,15,1.30
2013,10,29,04,16,1.30
2013,10,29,04,17,1.30
2013,10,29,04,18,1.30
2013,10,29,04,19,1.30
2013,10,29,04,20,1.30
2013,10,29,04,21,1.30
2013,10,29,04,22,1.30
2013,10,29,04,23,1.30
2013,10,29,04,24,1.30
2013,10,29,04,25,1.30
2013,10,29,04,26,1.30
2013,10,29,04,27,1.30
2013,10,29,04,28,1.30
2013,10,29,04,29,1.30
2013,10,29,04,30,1.30
2013,10,29,04,31,1.30
2013,10,29,04,32,1.30
2013,10,29,04,33,1.30
2013,10,29,04,34,1.30
2013,10,29,04,35,1.30
2013,10,29,04,36,1.30
2013,10,29,04,37,1.30
2013,10,29,04,38,1.30
2013,10,29,04,39,1.30
2013,10,29,04,40,1.30
2013,10,29,04,41,1.30
2013,10,29,04,42,1.30
2013,10,29,04,43,1.20
2013,10,29,04,44,1.20
2013,10,29,04,45,1.30
2013,10,29,04,46,1.30
2013,10,29,04,47,1.30
2013,10,29,04,48,1.30
2013,10,29,04,49,1.30
2013,10,29,04,50,1.30
2013,10,29,04,51,1.30
2013,10,29,04,52,1.30
2013,10,29,04,53,1.30
2013,10,29,04,54,1.30
2013,10,29,04,55,1.30
2013,10,29,04,56,1.30
2013,10,29,04,57,1.30
2013,10,29,04,58,1.30
2013,10,29,04,59,1.30
2013,10,29,05,00,1.30
2013,10,29,05,01,1.30
2013,10,29,05,02,1.30
2013,10,29,05,03,1.30
2013,10,29,05,04,1.30
2013,10,29,05,05,1.30
2013,10,29,05,06,1.30
2013,10,29,05,07,1.30
2013,10,29,05,08,1.30
2013,10,29,05,09,1.30
2013,10,29,05,10,1.30
2013,10,29,05,11,1.40
2013,10,29,05,12,1.30
2013,10,29,05,13,1.30
2013,10,29,05,14,1.30
2013,10,29,05,15,1.30
2013,10,29,05,16,1.30
2013,10,29,05,17,1.30
2013,10,29,05,18,1.30
2013,10,29,05,19,1.30
2013,10,29,05,20,1.30
2013,10,29,05,21,1.30
2013,10,29,05,22,1.30
2013,10,29,05,23,1.30
2013,10,29,05,24,1.30
2013,10,29,05,25,1.30
2013,10,29,05,26,1.30
2013,10,29,05,27,1.30
2013,10,29,05,28,1.30
2013,10,29,05,29,1.30
2013,10,29,05,30,1.30
2013,10,29,05,31,1.30
2013,10,29,05,32,1.30
2013,10,29,05,33,1.30
2013,10,29,05,34,1.30
2013,10,29,05,35,1.30
2013,10,29,05,36,1.30
2013,10,29,05,37,1.30
2013,10,29,05,38,1.30
2013,10,29,05,39,1.30
2013,10,29,05,40,1.30
2013,10,29,05,41,1.30
2013,10,29,05,42,1.30
2013,10,29,05,43,1.30
2013,10,29,05,44,1.30
2013,10,29,05,45,1.30
2013,10,29,05,46,1.30
2013,10,29,05,47,1.30
2013,10,29,05,48,1.30
2013,10,29,05,49,1.30
2013,10,29,05,50,1.30
2013,10,29,05,51,1.30
2013,10,29,05,52,1.30
2013,10,29,05,53,1.30
2013,10,29,05,54,1.30
2013,10,29,05,55,1.30
2013,10,29,05,56,1.30
2013,10,29,05,57,1.30
2013,10,29,05,58,1.30
2013,10,29,05,59,1.30
2013,10,29,06,00,1.30
2013,10,29,06,01,1.30
2013,10,29,06,02,1.30
2013,10,29,06,03,1.30
2013,10,29,06,04,1.30
2013,10,29,06,05,1.30
2013,10,29,06,06,1.30
2013,10,29,06,07,1.30
2013,10,29,06,08,1.30
2013,10,29,06,09,1.30
2013,10,29,06,10,1.30
2013,10,29,06,11,1.30
2013,10,29,06,12,1.30
2013,10,29,06,13,1.30
2013,10,29,06,14,1.30
2013,10,29,06,15,1.30
2013,10,29,06,16,1.30
2013,10,29,06,17,1.30
2013,10,29,06,18,1.30
2013,10,29,06,19,1.30
2013,10,29,06,20,1.30
2013,10,29,06,21,1.30
2013,10,29,06,22,1.30
2013,10,29,06,23,1.30
2013,10,29,06,24,1.30
2013,10,29,06,25,1.30
2013,10,29,06,26,1.30
2013,10,29,06,27,1.30
2013,10,29,06,28,1.30
2013,10,29,06,29,1.30
2013,10,29,06,30,1.30
2013,10,29,06,31,1.30
2013,10,29,06,32,1.30
2013,10,29,06,33,1.30
2013,10,29,06,34,1.30
2013,10,29,06,35,1.30
2013,10,29,06,36,1.30
2013,10,29,06,37,1.30
2013,10,29,06,38,1.30
2013,10,29,06,39,1.30
2013,10,29,06,40,1.30
2013,10,29,06,41,1.30
2013,10,29,06,42,1.30
2013,10,29,06,43,1.30
2013,10,29,06,44,1.30
2013,10,29,06,45,1.30
2013,10,29,06,46,1.30
2013,10,29,06,47,1.30
2013,10,29,06,48,1.30
2013,10,29,06,49,1.30
2013,10,29,06,50,1.30
2013,10,29,06,51,1.30
2013,10,29,06,52,1.30
2013,10,29,06,53,1.30
2013,10,29,06,54,1.30
2013,10,29,06,55,1.30
2013,10,29,06,56,1.30
2013,10,29,06,57,1.30
2013,10,29,06,58,1.30
2013,10,29,06,59,1.30
2013,10,29,07,00,1.30
2013,10,29,07,01,1.30
2013,10,29,07,02,1.30
2013,10,29,07,03,1.30
2013,10,29,07,04,1.30
2013,10,29,07,05,1.30
2013,10,29,07,06,1.30
2013,10,29,07,07,1.30
2013,10,29,07,08,1.30
2013,10,29,07,09,1.30
2013,10,29,07,10,1.30
2013,10,29,07,11,1.30
2013,10,29,07,12,1.30
2013,10,29,07,13,1.30
2013,10,29,07,14,1.30
2013,10,29,07,15,1.30
2013,10,29,07,16,1.30
2013,10,29,07,17,1.30
2013,10,29,07,18,1.30
2013,10,29,07,19,1.30
2013,10,29,07,20,1.30
2013,10,29,07,21,1.30
2013,10,29,07,22,1.30
2013,10,29,07,23,1.30
2013,10,29,07,24,1.30
2013,10,29,07,25,1.30
2013,10,29,07,26,1.30
2013,10,29,07,27,1.30
2013,10,29,07,28,1.20
2013,10,29,07,29,1.20
2013,10,29,07,30,1.10
2013,10,29,07,31,1.10
2013,10,29,07,32,1.10
2013,10,29,07,33,1.10
2013,10,29,07,34,1.10
2013,10,29,07,35,1.10
2013,10,29,07,36,1.00
2013,10,29,07,37,1.00
2013,10,29,07,38,1.00
2013,10,29,07,39,1.00
2013,10,29,07,40,1.00
2013,10,29,07,41,0.90
2013,10,29,07,42,0.90
2013,10,29,07,43,0.90
2013,10,29,07,44,0.90
2013,10,29,07,45,0.90
2013,10,29,07,46,0.90
2013,10,29,07,47,0.90
2013,10,29,07,48,0.90
2013,10,29,07,49,0.90
2013,10,29,07,50,0.90
2013,10,29,07,51,0.90
2013,10,29,07,52,0.90
2013,10,29,07,53,0.90
2013,10,29,07,54,0.90
2013,10,29,07,55,0.90
2013,10,29,07,56,0.90
2013,10,29,07,57,0.90
2013,10,29,07,58,0.90
2013,10,29,07,59,0.80
2013,10,29,08,00,0.80
2013,10,29,08,01,0.80
2013,10,29,08,02,0.80
2013,10,29,08,03,0.80
2013,10,29,08,04,0.80
2013,10,29,08,05,0.80
2013,10,29,08,06,0.80
2013,10,29,08,07,0.70
2013,10,29,08,08,0.70
2013,10,29,08,09,0.70
2013,10,29,08,10,0.70
2013,10,29,08,11,0.70
2013,10,29,08,12,0.70
2013,10,29,08,13,0.70
2013,10,29,08,14,0.80
2013,10,29,08,15,0.80
2013,10,29,08,16,0.80
2013,10,29,08,17,0.80
2013,10,29,08,18,0.80
2013,10,29,08,19,0.90
2013,10,29,08,20,0.90
2013,10,29,08,21,0.90
2013,10,29,08,22,0.90
2013,10,29,08,23,1.00
2013,10,29,08,24,1.00
2013,10,29,08,25,1.00
2013,10,29,08,26,1.10
2013,10,29,08,27,1.10
2013,10,29,08,28,1.10
2013,10,29,08,29,1.10
2013,10,29,08,30,1.20
2013,10,29,08,31,1.20
2013,10,29,08,32,1.30
2013,10,29,08,33,1.30
2013,10,29,08,34,1.30
2013,10,29,08,35,1.30
2013,10,29,08,36,1.30
2013,10,29,08,37,1.30
2013,10,29,08,38,1.30
2013,10,29,08,39,1.40
2013,10,29,08,40,1.40
2013,10,29,08,41,1.40
2013,10,29,08,42,1.40
2013,10,29,08,43,1.50
2013,10,29,08,44,1.50
2013,10,29,08,45,1.50
2013,10,29,08,46,1.60
2013,10,29,08,47,1.60
2013,10,29,08,48,1.70
2013,10,29,08,49,1.70
2013,10,29,08,50,1.80
2013,10,29,08,51,1.80
2013,10,29,08,52,1.80
2013,10,29,08,53,1.90
2013,10,29,08,54,1.90
2013,10,29,08,55,1.90
2013,10,29,08,56,2.00
2013,10,29,08,57,2.10
2013,10,29,08,58,2.10
2013,10,29,08,59,2.20
2013,10,29,09,00,2.20
2013,10,29,09,01,2.30
2013,10,29,09,02,2.30
2013,10,29,09,03,2.40
2013,10,29,09,04,2.40
2013,10,29,09,05,2.50
2013,10,29,09,06,2.60
2013,10,29,09,07,2.70
2013,10,29,09,08,2.70
2013,10,29,09,09,2.70
2013,10,29,09,10,2.80
2013,10,29,09,11,2.80
2013,10,29,09,12,2.90
2013,10,29,09,13,2.90
2013,10,29,09,14,3.00
2013,10,29,09,15,3.00
2013,10,29,09,16,3.10
2013,10,29,09,17,3.10
2013,10,29,09,18,3.20
2013,10,29,09,19,3.20
2013,10,29,09,20,3.20
2013,10,29,09,21,3.30
2013,10,29,09,22,3.30
2013,10,29,09,23,3.40
2013,10,29,09,24,3.50
2013,10,29,09,25,3.50
2013,10,29,09,26,3.60
2013,10,29,09,27,3.60
2013,10,29,09,28,3.70
2013,10,29,09,29,3.80
2013,10,29,09,30,3.80
2013,10,29,09,31,3.90
2013,10,29,09,32,4.00
2013,10,29,09,33,4.10
2013,10,29,09,34,4.10
2013,10,29,09,35,4.20
2013,10,29,09,36,4.30
2013,10,29,09,37,4.30
2013,10,29,09,38,4.40
2013,10,29,09,39,4.50
2013,10,29,09,40,4.50
2013,10,29,09,41,4.60
2013,10,29,09,42,4.70
2013,10,29,09,43,4.70
2013,10,29,09,44,4.80
2013,10,29,09,45,4.90
2013,10,29,09,46,4.90
2013,10,29,09,47,5.00
2013,10,29,09,48,5.10
2013,10,29,09,49,5.20
2013,10,29,09,50,5.30
2013,10,29,09,51,5.40
2013,10,29,09,52,5.60
2013,10,29,09,53,5.70
2013,10,29,09,54,5.90
2013,10,29,09,55,6.00
2013,10,29,09,56,6.20
2013,10,29,09,57,6.30
2013,10,29,09,58,6.40
2013,10,29,09,59,6.50
2013,10,29,10,00,6.50
2013,10,29,10,01,6.60
2013,10,29,10,02,6.60
2013,10,29,10,03,6.60
2013,10,29,10,04,6.70
2013,10,29,10,05,6.70
2013,10,29,10,06,6.70
2013,10,29,10,07,6.80
2013,10,29,10,08,6.80
2013,10,29,10,09,6.90
2013,10,29,10,10,6.90
2013,10,29,10,11,7.00
2013,10,29,10,12,7.00
2013,10,29,10,13,7.10
2013,10,29,10,14,7.20
2013,10,29,10,15,7.20
2013,10,29,10,16,7.20
2013,10,29,10,17,7.30
2013,10,29,10,18,7.40
2013,10,29,10,19,7.40
2013,10,29,10,20,7.50
2013,10,29,10,21,7.50
2013,10,29,10,22,7.60
2013,10,29,10,23,7.60
2013,10,29,10,24,7.70
2013,10,29,10,25,7.70
2013,10,29,10,26,7.80
2013,10,29,10,27,7.80
2013,10,29,10,28,7.80
2013,10,29,10,29,7.90
2013,10,29,10,30,7.90
2013,10,29,10,31,8.00
2013,10,29,10,32,8.00
2013,10,29,10,33,8.10
2013,10,29,10,34,8.10
2013,10,29,10,35,8.20
2013,10,29,10,36,8.20
2013,10,29,10,37,8.20
2013,10,29,10,38,8.30
2013,10,29,10,39,8.30
2013,10,29,10,40,8.40
2013,10,29,10,41,8.50
2013,10,29,10,42,8.50
2013,10,29,10,43,8.70
2013,10,29,10,44,8.80
2013,10,29,10,45,8.90
2013,10,29,10,46,9.00
2013,10,29,10,47,9.10
2013,10,29,10,48,9.30
2013,10,29,10,49,9.40
2013,10,29,10,50,9.40
2013,10,29,10,51,9.50
2013,10,29,10,52,9.60
2013,10,29,10,53,9.70
2013,10,29,10,54,9.70
2013,10,29,10,55,9.80
2013,10,29,10,56,9.90
2013,10,29,10,57,10.00
2013,10,29,10,58,10.00
2013,10,29,10,59,10.10
2013,10,29,11,00,10.10
2013,10,29,11,01,10.10
2013,10,29,11,02,10.10
2013,10,29,11,03,10.20
2013,10,29,11,04,10.20
2013,10,29,11,05,10.20
2013,10,29,11,06,10.30
2013,10,29,11,07,10.40
2013,10,29,11,08,10.40
2013,10,29,11,09,10.50
2013,10,29,11,10,10.60
2013,10,29,11,11,10.60
2013,10,29,11,12,10.70
2013,10,29,11,13,10.70
2013,10,29,11,14,10.80
2013,10,29,11,15,10.80
2013,10,29,11,16,10.80
2013,10,29,11,17,10.80
2013,10,29,11,18,10.90
2013,10,29,11,19,10.90
2013,10,29,11,20,11.00
2013,10,29,11,21,11.00
2013,10,29,11,22,11.00
2013,10,29,11,23,11.10
2013,10,29,11,24,11.10
2013,10,29,11,25,11.10
2013,10,29,11,26,11.20
2013,10,29,11,27,11.20
2013,10,29,11,28,11.20
2013,10,29,11,29,11.20
2013,10,29,11,30,11.30
2013,10,29,11,31,11.30
2013,10,29,11,32,11.30
2013,10,29,11,33,11.30
2013,10,29,11,34,11.30
2013,10,29,11,35,11.30
2013,10,29,11,36,11.30
2013,10,29,11,37,11.30
2013,10,29,11,38,11.30
2013,10,29,11,39,11.30
2013,10,29,11,40,11.30
2013,10,29,11,41,11.30
2013,10,29,11,42,11.40
2013,10,29,11,43,11.40
2013,10,29,11,44,11.50
2013,10,29,11,45,11.50
2013,10,29,11,46,11.50
2013,10,29,11,47,11.50
2013,10,29,11,48,11.60
2013,10,29,11,49,11.60
2013,10,29,11,50,11.60
2013,10,29,11,51,11.60
2013,10,29,11,52,11.60
2013,10,29,11,53,11.60
2013,10,29,11,54,11.60
2013,10,29,11,55,11.70
2013,10,29,11,56,11.70
2013,10,29,11,57,11.70
2013,10,29,11,58,11.80
2013,10,29,11,59,11.80
2013,10,29,12,00,11.80
2013,10,29,12,01,11.90
2013,10,29,12,02,11.90
2013,10,29,12,03,11.90
2013,10,29,12,04,12.00
2013,10,29,12,05,12.00
2013,10,29,12,06,12.10
2013,10,29,12,07,12.10
2013,10,29,12,08,12.10
2013,10,29,12,09,12.20
2013,10,29,12,10,12.20
2013,10,29,12,11,12.30
2013,10,29,12,12,12.30
2013,10,29,12,13,12.20
2013,10,29,12,14,12.20
2013,10,29,12,15,12.20
2013,10,29,12,16,12.20
2013,10,29,12,17,12.30
2013,10,29,12,18,12.30
2013,10,29,12,19,12.30
2013,10,29,12,20,12.30
2013,10,29,12,21,12.20
2013,10,29,12,22,12.20
2013,10,29,12,23,12.30
2013,10,29,12,24,12.30
2013,10,29,12,25,12.30
2013,10,29,12,26,12.30
2013,10,29,12,27,12.20
2013,10,29,12,28,12.20
2013,10,29,12,29,12.30
2013,10,29,12,30,12.30
2013,10,29,12,31,12.40
2013,10,29,12,32,12.50
2013,10,29,12,33,12.50
2013,10,29,12,34,12.60
2013,10,29,12,35,12.60
2013,10,29,12,36,12.50
2013,10,29,12,37,12.60
2013,10,29,12,38,12.60
2013,10,29,12,39,12.60
2013,10,29,12,40,12.60
2013,10,29,12,41,12.60
2013,10,29,12,42,12.70
2013,10,29,12,43,12.70
2013,10,29,12,44,12.70
2013,10,29,12,45,12.70
2013,10,29,12,46,12.60
2013,10,29,12,47,12.60
2013,10,29,12,48,12.60
2013,10,29,12,49,12.60
2013,10,29,12,50,12.60
2013,10,29,12,51,12.60
2013,10,29,12,52,12.60
2013,10,29,12,53,12.70
2013,10,29,12,54,12.70
2013,10,29,12,55,12.70
2013,10,29,12,56,12.80
2013,10,29,12,57,12.80
2013,10,29,12,58,12.70
2013,10,29,12,59,12.70
2013,10,29,13,00,12.60
2013,10,29,13,01,12.50
2013,10,29,13,02,12.50
2013,10,29,13,03,12.40
2013,10,29,13,04,12.40
2013,10,29,13,05,12.40
2013,10,29,13,06,12.40
2013,10,29,13,07,12.40
2013,10,29,13,08,12.40
2013,10,29,13,09,12.50
2013,10,29,13,10,12.50
2013,10,29,13,11,12.60
2013,10,29,13,12,12.60
2013,10,29,13,13,12.60
2013,10,29,13,14,12.60
2013,10,29,13,15,12.70
2013,10,29,13,16,12.70
2013,10,29,13,17,12.80
2013,10,29,13,18,12.80
2013,10,29,13,19,12.70
2013,10,29,13,20,12.60
2013,10,29,13,21,12.60
2013,10,29,13,22,12.60
2013,10,29,13,23,12.60
2013,10,29,13,24,12.60
2013,10,29,13,25,12.50
2013,10,29,13,26,12.60
2013,10,29,13,27,12.60
2013,10,29,13,28,12.60
2013,10,29,13,29,12.60
2013,10,29,13,30,12.70
2013,10,29,13,31,12.70
2013,10,29,13,32,12.70
2013,10,29,13,33,12.70
2013,10,29,13,34,12.70
2013,10,29,13,35,12.70
2013,10,29,13,36,12.80
2013,10,29,13,37,12.80
2013,10,29,13,38,12.80
2013,10,29,13,39,12.80
2013,10,29,13,40,12.80
2013,10,29,13,41,12.70
2013,10,29,13,42,12.70
2013,10,29,13,43,12.70
2013,10,29,13,44,12.70
2013,10,29,13,45,12.70
2013,10,29,13,46,12.70
2013,10,29,13,47,12.70
2013,10,29,13,48,12.70
2013,10,29,13,49,12.70
2013,10,29,13,50,12.70
2013,10,29,13,51,12.80
2013,10,29,13,52,12.80
2013,10,29,13,53,12.80
2013,10,29,13,54,12.90
2013,10,29,13,55,12.90
2013,10,29,13,56,12.90
2013,10,29,13,57,12.90
2013,10,29,13,58,12.90
2013,10,29,13,59,12.90
2013,10,29,14,00,12.90
2013,10,29,14,01,12.80
2013,10,29,14,02,12.80
2013,10,29,14,03,12.70
2013,10,29,14,04,12.70
2013,10,29,14,05,12.60
2013,10,29,14,06,12.50
2013,10,29,14,07,12.50
2013,10,29,14,08,12.40
2013,10,29,14,09,12.40
2013,10,29,14,10,12.30
2013,10,29,14,11,12.30
2013,10,29,14,12,12.30
2013,10,29,14,13,12.30
2013,10,29,14,14,12.30
2013,10,29,14,15,12.30
2013,10,29,14,16,12.30
2013,10,29,14,17,12.30
2013,10,29,14,18,12.30
2013,10,29,14,19,12.30
2013,10,29,14,20,12.30
2013,10,29,14,21,12.30
2013,10,29,14,22,12.30
2013,10,29,14,23,12.30
2013,10,29,14,24,12.30
2013,10,29,14,25,12.40
2013,10,29,14,26,12.40
2013,10,29,14,27,12.40
2013,10,29,14,28,12.40
2013,10,29,14,29,12.40
2013,10,29,14,30,12.40
2013,10,29,14,31,12.40
2013,10,29,14,32,12.40
2013,10,29,14,33,12.30
2013,10,29,14,34,12.30
2013,10,29,14,35,12.20
2013,10,29,14,36,12.30
2013,10,29,14,37,12.20
2013,10,29,14,38,12.20
2013,10,29,14,39,12.20
2013,10,29,14,40,12.20
2013,10,29,14,41,12.20
2013,10,29,14,42,12.20
2013,10,29,14,43,12.20
2013,10,29,14,44,12.20
2013,10,29,14,45,12.10
2013,10,29,14,46,12.10
2013,10,29,14,47,12.10
2013,10,29,14,48,12.10
2013,10,29,14,49,12.10
2013,10,29,14,50,12.10
2013,10,29,14,51,12.10
2013,10,29,14,52,12.10
2013,10,29,14,53,12.20
2013,10,29,14,54,12.10
2013,10,29,14,55,12.00
2013,10,29,14,56,12.00
2013,10,29,14,57,11.90
2013,10,29,14,58,11.90
2013,10,29,14,59,11.80
2013,10,29,15,00,11.80
2013,10,29,15,01,11.70
2013,10,29,15,02,11.70
2013,10,29,15,03,11.60
2013,10,29,15,04,11.60
2013,10,29,15,05,11.60
2013,10,29,15,06,11.60
2013,10,29,15,07,11.60
2013,10,29,15,08,11.60
2013,10,29,15,09,11.70
2013,10,29,15,10,11.70
2013,10,29,15,11,11.70
2013,10,29,15,12,11.60
2013,10,29,15,13,11.60
2013,10,29,15,14,11.50
2013,10,29,15,15,11.50
2013,10,29,15,16,11.50
2013,10,29,15,17,11.60
2013,10,29,15,18,11.60
2013,10,29,15,19,11.60
2013,10,29,15,20,11.50
2013,10,29,15,21,11.50
2013,10,29,15,22,11.40
2013,10,29,15,23,11.40
2013,10,29,15,24,11.40
2013,10,29,15,25,11.40
2013,10,29,15,26,11.40
2013,10,29,15,27,11.40
2013,10,29,15,28,11.40
2013,10,29,15,29,11.40
2013,10,29,15,30,11.40
2013,10,29,15,31,11.40
2013,10,29,15,32,11.40
2013,10,29,15,33,11.40
2013,10,29,15,34,11.40
2013,10,29,15,35,11.40
2013,10,29,15,36,11.50
2013,10,29,15,37,11.40
2013,10,29,15,38,11.40
2013,10,29,15,39,11.40
2013,10,29,15,40,11.40
2013,10,29,15,41,11.40
2013,10,29,15,42,11.40
2013,10,29,15,43,11.40
2013,10,29,15,44,11.40
2013,10,29,15,45,11.50
2013,10,29,15,46,11.40
2013,10,29,15,47,11.50
2013,10,29,15,48,11.50
2013,10,29,15,49,11.50
2013,10,29,15,50,11.50
2013,10,29,15,51,11.40
2013,10,29,15,52,11.40
2013,10,29,15,53,11.40
2013,10,29,15,54,11.40
2013,10,29,15,55,11.40
2013,10,29,15,56,11.40
2013,10,29,15,57,11.40
2013,10,29,15,58,11.40
2013,10,29,15,59,11.40
2013,10,29,16,00,11.30
2013,10,29,16,01,11.30
2013,10,29,16,02,11.30
2013,10,29,16,03,11.30
2013,10,29,16,04,11.30
2013,10,29,16,05,11.30
2013,10,29,16,06,11.30
2013,10,29,16,07,11.30
2013,10,29,16,08,11.20
2013,10,29,16,09,11.20
2013,10,29,16,10,11.20
2013,10,29,16,11,11.20
2013,10,29,16,12,11.20
2013,10,29,16,13,11.20
2013,10,29,16,14,11.20
2013,10,29,16,15,11.20
2013,10,29,16,16,11.20
2013,10,29,16,17,11.20
2013,10,29,16,18,11.20
2013,10,29,16,19,11.20
2013,10,29,16,20,11.20
2013,10,29,16,21,11.20
2013,10,29,16,22,11.20
2013,10,29,16,23,11.20
2013,10,29,16,24,11.20
2013,10,29,16,25,11.20
2013,10,29,16,26,11.10
2013,10,29,16,27,11.10
2013,10,29,16,28,11.00
2013,10,29,16,29,11.00
2013,10,29,16,30,11.00
2013,10,29,16,31,11.00
2013,10,29,16,32,11.00
2013,10,29,16,33,10.90
2013,10,29,16,34,10.90
2013,10,29,16,35,10.90
2013,10,29,16,36,10.90
2013,10,29,16,37,10.90
2013,10,29,16,38,10.90
2013,10,29,16,39,10.90
2013,10,29,16,40,10.90
2013,10,29,16,41,10.80
2013,10,29,16,42,10.80
2013,10,29,16,43,10.80
2013,10,29,16,44,10.80
2013,10,29,16,45,10.70
2013,10,29,16,46,10.70
2013,10,29,16,47,10.70
2013,10,29,16,48,10.70
2013,10,29,16,49,10.70
2013,10,29,16,50,10.60
2013,10,29,16,51,10.60
2013,10,29,16,52,10.60
2013,10,29,16,53,10.60
2013,10,29,16,54,10.60
2013,10,29,16,55,10.60
2013,10,29,16,56,10.50
2013,10,29,16,57,10.50
2013,10,29,16,58,10.40
2013,10,29,16,59,10.40
2013,10,29,17,00,10.30
2013,10,29,17,01,10.30
2013,10,29,17,02,10.20
2013,10,29,17,03,10.10
2013,10,29,17,04,10.10
2013,10,29,17,05,10.00
2013,10,29,17,06,9.90
2013,10,29,17,07,9.90
2013,10,29,17,08,9.80
2013,10,29,17,09,9.80
2013,10,29,17,10,9.70
2013,10,29,17,11,9.60
2013,10,29,17,12,9.60
2013,10,29,17,13,9.60
2013,10,29,17,14,9.50
2013,10,29,17,15,9.50
2013,10,29,17,16,9.40
2013,10,29,17,17,9.40
2013,10,29,17,18,9.40
2013,10,29,17,19,9.30
2013,10,29,17,20,9.30
2013,10,29,17,21,9.30
2013,10,29,17,22,9.30
2013,10,29,17,23,9.20
2013,10,29,17,24,9.20
2013,10,29,17,25,9.10
2013,10,29,17,26,9.10
2013,10,29,17,27,9.00
2013,10,29,17,28,8.90
2013,10,29,17,29,8.90
2013,10,29,17,30,8.80
2013,10,29,17,31,8.70
2013,10,29,17,32,8.70
2013,10,29,17,33,8.60
2013,10,29,17,34,8.60
2013,10,29,17,35,8.50
2013,10,29,17,36,8.40
2013,10,29,17,37,8.40
2013,10,29,17,38,8.30
2013,10,29,17,39,8.20
2013,10,29,17,40,8.20
2013,10,29,17,41,8.20
2013,10,29,17,42,8.10
2013,10,29,17,43,8.10
2013,10,29,17,44,8.10
2013,10,29,17,45,8.00
2013,10,29,17,46,8.00
2013,10,29,17,47,7.90
2013,10,29,17,48,7.80
2013,10,29,17,49,7.80